Regional Weather Roundup
Issued by NWS Glasgow, MT

Home | Current Version | Previous Version | Text Only | Print | Product List | Glossary On
Versions: 1 2 3 4 5 6 7 8 9 10 11 12 13 14 15 16 17 18 19 20 21 22 23 24 25 26 27 28 29 30 31 32 33 34 35 36 37 38 39 40 41 42 43 44 45 46 47 48 49 50
000
ASUS45 KGGW 310015
RWRGGW
HOURLY REGIONAL WEATHER ROUNDUP FOR NORTHEAST MONTANA
NATIONAL WEATHER SERVICE GLASGOW MONTANA
600 PM MDT MON MAY 30 2016

NOTE: "FAIR" INDICATES FEW OR NO CLOUDS BELOW 12,000 FEET WITH NO
SIGNIFICANT WEATHER AND/OR OBSTRUCTIONS TO VISISBILITY.

NORTHEAST MONTANA


CITY           SKY/WX    TMP DP  RH WIND       PRES   REMARKS
GLASGOW        CLOUDY    57  42  57 W23G35    29.96R
6HR MIN TEMP:  52; 6HR MAX TEMP:  63; 6HR PCP:  0.09;

PLENTYWOOD       N/A     57  52  83 NW3         N/A
WOLF POINT     CLOUDY    58  50  75 NW6       29.94F
JORDAN           N/A     58  42  55 NW20G25   30.00S
WINNETT          N/A     57  33  40 W26G41      N/A
SIDNEY         CLOUDY    55  54  94 N14       29.91F
GLENDIVE       CLOUDY    54  48  82 NW13G21   29.97R
MALTA            N/A     55  43  63 W20G30      N/A
OPHEIM           N/A     54  43  66 W6        29.77S

FORT PECK REPORTS


CITY           SKY/WX    TMP DP  RH WIND       PRES   REMARKS
FORT PECK        N/A     58  44  60 W17G32      N/A
THE PINES        N/A     59  41  51 NW12G26     N/A

SOUTHEAST MONTANA


CITY           SKY/WX    TMP DP  RH WIND       PRES   REMARKS
BILLINGS       PTSUNNY   62  38  40 NE13      30.07R
MILES CITY     CLOUDY    61  40  45 NW23G31   29.99R
BAKER          PTSUNNY   55  47  74 NW15G30   29.96S
LIVINGSTON     SUNNY     62  35  36 N18       30.08S

CENTRAL MONTANA


CITY           SKY/WX    TMP DP  RH WIND       PRES   REMARKS
HAVRE          CLOUDY    48  42  80 NW23G31   30.07S
LEWISTOWN      CLOUDY    54  38  54 NW12G26   30.11S
GREAT FALLS    CLOUDY    58  34  40 NW13      30.14R
CUT BANK       PTSUNNY   57  34  41 NW22G35   30.15R
HELENA         SUNNY     63  36  36 N12       30.11R
BUTTE          SUNNY     60  22  23 N12G24    30.15S
BOZEMAN        SUNNY     64  32  30 N15       30.09S

WESTERN MONTANA


CITY           SKY/WX    TMP DP  RH WIND       PRES   REMARKS
MISSOULA       MOSUNNY   67  32  27 N8        30.12S
KALISPELL      NOT AVBL

NORTH DAKOTA


CITY           SKY/WX    TMP DP  RH WIND       PRES   REMARKS
WILLISTON      CLOUDY    56  52  86 N9        29.91R
DICKINSON      CLOUDY    59  53  80 N6        29.87R
MINOT          LGT RAIN  61  55  81 W6        29.85S
BISMARCK       TSTM      61  58  90 N10G18    29.81R

SOUTHERN SASKATCHEWAN


CITY           SKY/WX    TMP DP  RH WIND       PRES   REMARKS
REGINA         LGT RAIN  59  54  82 NE8       29.91R
MOOSE JAW      LGT RAIN  61  52  72 NW7       29.91S
ESTEVAN        LGT RAIN  57  54  88 W14       29.90
SWIFT CURRENT  LGT RAIN  52  50  93 W8        29.93S




USA.gov is the U.S. government's official web portal to all federal, state and local government web resources and services.